Miscellaneous Local Product
Issued by NWS North Platte, NE

Home | Current Version | Previous Version | Text Only | Print | Product List | Glossary On
Versions: 1 2 3 4 5 6 7 8 9 10 11 12 13 14 15 16 17 18 19 20 21 22 23 24 25 26 27 28 29 30 31 32 33 34 35 36 37 38 39 40 41 42 43 44 45 46 47 48 49 50
134
AXUS43 KLBF 240310
MISLBF


WESTERN AND NORTH CENTRAL NEBRASKA HOURLY WEATHER ROUNDUP
NATIONAL WEATHER SERVICE NORTH PLATTE NE
900 PM CST THU FEB 23 2017

NOTE: "FAIR" INDICATES FEW OR NO CLOUDS BELOW 12,000 FEET WITH NO
SIGNIFICANT WEATHER AND/OR OBSTRUCTIONS TO VISIBILITY.

NOTE: STATIONS NOT REPORTING VARIABLES SUCH AS SKY/WEATHER OR
PRESSURE ARE PROVIDED BY RAWS AND APRS NETWORKS AND ARE NOT UNDER
NATIONAL WEATHER SERVICE QUALITY CONTROL.

...OBSERVATIONS IN AND NEAR THE EASTERN PANHANDLE OF NEBRASKA...

CITY           SKY/WX    TMP DP  RH WIND       PRES   REMARKS
PINE RIDGE     LGT SNOW  24  21  88 NE17      29.91R FOG     WCI  11
CHADRON        LGT SNOW  25  22  88 NE14      29.93R FOG     WCI  13
ALLIANCE       LGT SNOW  22  19  89 N21       29.85R VSB 3/4 WCI   6
SIDNEY         CLOUDY    21  18  88 N15       29.81S FOG     WCI   8
CRESCENT LAKE    N/A     21  20  97 N12G23      N/A  WCI   9
$$

...OBSERVATIONS IN NORTHERN NEBRASKA AND FAR SOUTHERN SOUTH DAKOTA...

CITY           SKY/WX    TMP DP  RH WIND       PRES   REMARKS
WINNER         LGT SNOW  26  24  92 N20       29.92R VSB 1   WCI  12
VALENTINE      CLOUDY    24  20  84 N22G30    29.87R FOG     WCI   9
THEDFORD       CLOUDY    25  23  93 N17G25    29.81R WCI  11
AINSWORTH      CLOUDY    25  24  96 N25       29.83R WCI   9
O`NEILL        CLOUDY    28  26  96 N25G33    29.75F WCI  13
ORD            LGT SNOW  28  24  85 N17       29.73R FOG     WCI  16
BROKEN BOW     LGT SNOW  27  25  92 N18       29.74R VSB 3/4 WCI  14
VALENTINE NWR    N/A     23  22  94 N15G26      N/A  WCI  10
BUTTE            N/A     25  24  93 N17G28      N/A  WCI  12
HALSEY           N/A     24  23  95 N8G17       N/A  WCI  15
CHAMBERS         N/A     26  25  95 N7          N/A  WCI  18
EWING            N/A     27  26  96 NE8         N/A  WCI  19
$$

...OBSERVATIONS IN SOUTHWEST NEBRASKA AND FAR NORTHEAST COLORADO...

CITY           SKY/WX    TMP DP  RH WIND       PRES   REMARKS
HOLYOKE        LGT SNOW  27  23  86 N10       29.80R WCI  17
IMPERIAL       LGT SNOW  25  21  85 N17       29.78R FOG     WCI  12
OGALLALA       LGT SNOW  26  23  89 N12       29.81R WCI  15
NORTH PLATTE   LGT SNOW  26  23  88 N8        29.77S FOG     WCI  18
MCCOOK         PTCLDY    27  25  92 N15       29.74R WCI  15
LEXINGTON      LGT SNOW  29  26  88 N16       29.73S WCI  17
STAPLETON        N/A     23  22  94 CALM        N/A
GOTHENBURG       N/A     26  23  89 NW9         N/A  WCI  17
CALLAWAY         N/A     25  24  95 N16         N/A  WCI  12
$$

...OBSERVATIONS IN CENTRAL LINCOLN COUNTY AREA...

CITY           SKY/WX    TMP DP  RH WIND       PRES   REMARKS
N.P. AIRPORT   LGT SNOW  26  23  88 N8        29.77S FOG     WCI  18
N.P. DOWNTOWN    N/A     25  23  92 N7          N/A  WCI  17
N.P. SOUTHEAST   N/A     24  22  92 N7G14       N/A  WCI  16
N.P. HILLCREST   N/A     25  24  93 N16         N/A  WCI  12
$$

...SOME OBSERVATIONS FROM AROUND THE REGION...

CITY           SKY/WX    TMP DP  RH WIND       PRES   REMARKS
LARAMIE        CLOUDY    12   4  70 E6        29.73R WCI   3
CHEYENNE       LGT SNOW  15  11  83 N13       29.78R FOG     WCI   1
DENVER         FLURRIES  19  14  81 N12       29.82R WCI   7
AKRON          CLOUDY    20  16  84 N17       29.79R WCI   5
SCOTTSBLUFF    LGT SNOW  23  20  88 N5        29.89R FOG     WCI  17
RAPID CITY     FLURRIES  27  22  81 NE14      29.96R WCI  16
BISMARCK       CLOUDY    22  15  75 N8        30.11S WCI  12
PIERRE         CLOUDY    28  21  75 NE22G29   29.96R WCI  14
SIOUX FALLS    SNOW      28  27  96 NE23G35   29.81F VSB 1/2 WCI  14
OMAHA          RAIN      36  32  85 N21G28    29.57F FOG     WCI  25
GRAND ISLAND   LGT SNOW  30  29  96 N16       29.69R FOG     WCI  19
KANSAS CITY    PTCLDY    48  45  89 E14       29.39F
WICHITA        PTCLDY    45  38  76 NW28G44   29.46R
OKLAHOMA CITY  PTCLDY    72  36  26 SW13      29.42R
DALLAS         PTCLDY    77  57  50 S20G28    29.50R
AMARILLO       CLEAR     51  12  21 W9        29.60R
DODGE CITY     CLOUDY    35  31  85 N26G33    29.64R WCI  22
HAYS           CLOUDY    35  30  82 N25       29.65R WCI  23
GOODLAND       CLOUDY    25  23  92 N18       29.74R WCI  11
$$




USA.gov is the U.S. government's official web portal to all federal, state and local government web resources and services.